[[{"header":{"parameterUnit":"m.s-1","parameterCategory":1,"la1":30.2992,"la2":30.254,"lo1":-89.0895,"lo2":-89.0443,"dy":0.0025,"dx":0.0025,"nx":19,"ny":19,"refTime":"2026-03-14T03:00:00:Z","depth":0,"parameterNumber":2,"parameterNumberName":"U-component_of_WINDS"},"data":[0,0,0,-1.1826,-1.1828,-1.1911,-1.1911,-1.2014,-1.2015,0,0,0,0,0,0,0,0,0,0,0,-1.1799,-1.18,-1.1826,-1.1828,-1.1911,-1.1911,-1.2014,-1.2015,0,0,0,0,0,0,0,0,0,0,0,-1.1799,-1.1799,-1.18,-1.1828,-1.1911,-1.1911,-1.2014,-1.1953,0,0,0,0,0,0,0,0,0,0,-1.1873,-1.1845,-1.1799,-1.18,-1.1829,-1.191,-1.1911,-1.195,-1.1956,-1.1975,0,-1.199,0,-1.2004,-1.2022,-1.2022,0,0,0,-1.1831,-1.1839,-1.1864,-1.18,-1.183,-1.191,-1.1874,-1.1954,-1.1961,-1.1984,-1.1991,-1.1995,-1.2006,-1.2022,-1.2023,-1.2118,-1.2118,0,0,-1.1826,-1.1813,-1.1858,-1.1868,-1.1854,-1.1871,-1.1877,-1.1958,-1.1966,-1.1992,-1.1998,-1.2007,-1.2023,-1.2024,-1.2118,-1.2118,0,0,0,-1.1811,-1.1809,-1.1832,-1.1864,-1.1879,-1.1874,-1.188,-1.1962,-1.1971,-1.1999,-1.2008,-1.2023,-1.2025,-1.2117,-1.2118,-1.212,0,0,0,-1.1809,-1.1801,-1.183,-1.1823,-1.1877,-1.1921,-1.1882,-1.1965,-1.1975,-1.2008,-1.2023,-1.2026,-1.2117,-1.2118,-1.2119,-1.2124,0,0,0,-1.1795,-1.1799,-1.181,-1.1822,-1.1857,-1.192,-1.1934,-1.1967,-1.198,-1.2022,-1.2026,-1.2117,-1.2118,-1.2119,-1.2123,-1.2145,0,0,0,-1.1776,-1.1812,-1.181,-1.1853,-1.1856,-1.192,-1.1933,-1.1983,-1.2019,-1.2024,-1.2117,-1.2118,-1.2118,-1.2122,-1.2144,-1.2161,-1.2166,0,0,-1.1814,-1.1816,-1.1843,-1.1843,-1.1904,-1.1909,-1.1972,-1.2018,-1.2035,-1.209,-1.2092,-1.212,-1.2123,-1.2144,-1.2203,-1.2207,0,0,0,-1.185,-1.1869,-1.1888,-1.1921,-1.1956,-1.1987,-1.2025,-1.2042,-1.2089,-1.206,-1.2134,-1.2136,-1.215,-1.2158,-1.2162,-1.2175,-1.2121,-1.2121,-1.2121,-1.1885,-1.1903,-1.1948,-1.1976,-1.2008,-1.2046,-1.2074,-1.2104,-1.2115,-1.2132,-1.2148,-1.2181,-1.2191,-1.2194,-1.2206,-1.2158,-1.2158,-1.2159,-1.2159,-1.1941,-1.1971,-1.1983,-1.2031,-1.2051,-1.2092,-1.213,-1.2136,-1.2178,-1.217,-1.2183,-1.2173,-1.2198,-1.221,-1.2159,-1.2159,-1.2159,-1.2159,-1.2159,-1.1966,-1.1984,-1.2003,-1.2051,-1.2087,-1.2115,-1.2154,-1.2171,-1.2187,-1.22,-1.2219,-1.2219,-1.2221,-1.2208,-1.2208,-1.2208,-1.2208,-1.2208,-1.2208,-1.1985,-1.2006,-1.2036,-1.2075,-1.2098,-1.213,-1.2169,-1.2192,-1.2223,-1.2232,-1.2232,-1.2241,-1.2196,-1.2185,-1.221,-1.221,-1.2209,-1.2209,-1.2209,-1.2036,-1.2027,-1.2073,-1.2096,-1.2143,-1.2177,-1.2198,-1.2244,-1.2266,-1.2285,-1.2291,-1.2255,-1.2259,-1.2256,-1.2246,-1.2286,-1.2286,-1.2286,-1.2286,-1.2057,-1.206,-1.2111,-1.2146,-1.2182,-1.2205,-1.2258,-1.2288,-1.2318,-1.2333,-1.233,-1.2318,-1.2315,-1.2321,-1.2317,-1.2308,-1.2363,-1.2363,-1.2363,-1.209,-1.2097,-1.2138,-1.2165,-1.2203,-1.2236,-1.2286,-1.2327,-1.236,-1.2367,-1.2345,-1.2342,-1.2324,-1.2317,-1.2324,-1.2317,-1.2302,0,0]},{"header":{"parameterUnit":"m.s-1","parameterCategory":1,"la1":30.2992,"la2":30.254,"lo1":-89.0895,"lo2":-89.0443,"dy":0.0025,"dx":0.0025,"nx":19,"ny":19,"refTime":"2026-03-14T03:00:00:Z","depth":0,"parameterNumber":3,"parameterNumberName":"V-component_of_WINDS"},"data":[0,0,0,1.1908,1.1909,1.1954,1.1954,1.2026,1.2026,0,0,0,0,0,0,0,0,0,0,0,1.1902,1.1902,1.1907,1.1909,1.1954,1.1954,1.2025,1.2026,0,0,0,0,0,0,0,0,0,0,0,1.1901,1.1902,1.1903,1.1909,1.1954,1.1954,1.2025,1.1986,0,0,0,0,0,0,0,0,0,0,1.194,1.1942,1.1902,1.1903,1.1909,1.1954,1.1954,1.1984,1.1989,1.201,0,1.2031,0,1.203,1.2032,1.2032,0,0,0,1.1903,1.1938,1.1944,1.1903,1.191,1.1954,1.1932,1.1987,1.1992,1.2017,1.2032,1.2035,1.2031,1.2032,1.2033,1.2175,1.2176,0,0,1.1901,1.1914,1.194,1.1947,1.1941,1.1931,1.1934,1.199,1.2008,1.2033,1.2036,1.2032,1.2033,1.2034,1.2174,1.2176,0,0,0,1.1897,1.1913,1.1916,1.1945,1.1952,1.1932,1.1935,1.2005,1.2005,1.2037,1.2033,1.2033,1.2034,1.2173,1.2175,1.2233,0,0,0,1.1895,1.191,1.1915,1.1924,1.1951,1.1979,1.195,1.2001,1.2007,1.2033,1.2034,1.2035,1.2172,1.2174,1.2229,1.2259,0,0,0,1.1896,1.191,1.192,1.1925,1.1945,1.1978,1.1981,1.2002,1.2006,1.2032,1.2036,1.2172,1.2174,1.2226,1.2253,1.23,0,0,0,1.1901,1.1971,1.1921,1.1998,1.1944,1.2014,1.198,1.2031,1.2061,1.2034,1.2173,1.2175,1.2225,1.225,1.2296,1.2341,1.2361,0,0,1.1997,1.1983,1.2028,1.1984,1.2065,1.2006,1.2096,1.2111,1.2101,1.2151,1.2155,1.2231,1.2253,1.2299,1.247,1.2486,0,0,0,1.2063,1.2095,1.2114,1.2142,1.2155,1.2169,1.2168,1.2174,1.2215,1.213,1.226,1.2273,1.2299,1.232,1.2334,1.2356,1.2185,1.2185,1.2185,1.2219,1.2202,1.2275,1.2264,1.2292,1.2291,1.2313,1.232,1.2296,1.2327,1.2341,1.2447,1.2472,1.2482,1.2505,1.2364,1.2364,1.2365,1.2365,1.2358,1.2401,1.2367,1.2424,1.2407,1.2455,1.2457,1.2438,1.2481,1.2435,1.2457,1.2408,1.25,1.252,1.2369,1.2368,1.2368,1.2367,1.2367,1.2458,1.2476,1.2481,1.2521,1.2553,1.254,1.2582,1.2565,1.2549,1.2572,1.2585,1.2584,1.2581,1.2579,1.258,1.258,1.2581,1.2581,1.2581,1.256,1.2564,1.2601,1.2621,1.2637,1.2656,1.2655,1.2671,1.2683,1.2667,1.2667,1.264,1.2512,1.2481,1.2587,1.2586,1.2585,1.2584,1.2584,1.2707,1.2671,1.2729,1.2745,1.2766,1.28,1.2777,1.281,1.282,1.2842,1.281,1.2718,1.2703,1.2692,1.2665,1.2813,1.2813,1.2813,1.2813,1.2791,1.2782,1.2837,1.2864,1.2888,1.2873,1.294,1.294,1.2935,1.2941,1.2917,1.288,1.287,1.2861,1.2846,1.2821,1.3005,1.3005,1.3005,1.2881,1.2873,1.2932,1.2926,1.2941,1.2955,1.3017,1.3049,1.3036,1.3013,1.2944,1.2936,1.2877,1.2859,1.2834,1.2811,1.2765,0,0]}]]